Weather History for KOVS - January, 2012

Change the Weather History Date:

Friday, January 6, 2012

  Actual Average (KPDC) Record (KPDC)
Temperature  
Mean Temperature 40 °F -  
Max Temperature 51 °F 26 °F 50 °F (2012)
Min Temperature 28 °F 8 °F -25 °F (1988)
Degree Days  
Heating Degree Days 26    
Moisture  
Dew Point 28 °F    
Average Humidity 69    
Maximum Humidity 89    
Minimum Humidity 41    
Precipitation  
Precipitation 0.00 in - - ()
Sea Level Pressure  
Sea Level Pressure 29.76 in    
Wind  
Wind Speed 5 mph (SW)    
Max Wind Speed 9 mph    
Max Gust Speed -    
Visibility 10 miles    
Events      
Averages and records for this station are not official NWS values.
T = Trace of Precipitation, MM = Missing Value Source: NWS Daily Summary

Daily Weather History Graph

Daily Weather History Graph

Search for Another Location

Airport or City:

Trip Planner

Search our weather history database for the weather conditions in past years. The results will help you decide how hot, cold, wet, or windy it might be!

Date:

Astronomy

Jan. 06, 2012 Rise Set
Actual Time 7:34 AM CST 4:42 PM CST
Civil Twilight 7:02 AM CST 5:14 PM CST
Nautical Twilight 6:26 AM CST 5:50 PM CST
Astronomical Twilight 5:52 AM CST 6:24 PM CST
Moon 2:32 PM CST (1/6) 5:15 AM CST (1/6)
Length of Visible Light 10h 12m
Length of Day
9h 08m
Waxing Gibbous, 93% of the Moon is Illuminated
Jan 6
Waxing Gibbous
Jan 9
Full
Jan 16
Last Quarter
Jan 23
New
Jan 30
First Quarter

Hourly Weather History & Observations

Time (CST) Temp. Windchill Dew Point Humidity Pressure Visibility Wind Dir Wind Speed Gust Speed Precip Events Conditions
12:53 AM 39.0 °F 34.0 °F 28.9 °F 67% 29.67 in 10.0 mi SSW 6.9 mph - N/A   Clear
2:53 AM 30.0 °F 24.1 °F 26.1 °F 85% 29.68 in 10.0 mi SW 5.8 mph - N/A   Clear
3:53 AM 30.9 °F - 27.0 °F 85% 29.68 in 10.0 mi Calm Calm - N/A   Clear
4:53 AM 30.0 °F - 27.0 °F 88% 29.68 in 10.0 mi Calm Calm - N/A   Clear
5:53 AM 28.9 °F - 26.1 °F 89% 29.71 in 10.0 mi Calm Calm - N/A   Clear
6:53 AM 30.0 °F 26.5 °F 26.1 °F 85% 29.72 in 10.0 mi SW 3.5 mph - N/A   Clear
7:53 AM 30.0 °F 26.5 °F 27.0 °F 88% 29.72 in 10.0 mi West 3.5 mph - N/A   Clear
8:53 AM 33.1 °F 28.7 °F 28.9 °F 85% 29.74 in 10.0 mi SSW 4.6 mph - N/A   Clear
9:53 AM 35.1 °F 32.2 °F 30.0 °F 82% 29.76 in 10.0 mi SW 3.5 mph - N/A   Clear
10:53 AM 41.0 °F 38.0 °F 30.9 °F 67% 29.77 in 10.0 mi SW 4.6 mph - N/A   Clear
11:53 AM 44.1 °F 40.8 °F 32.0 °F 63% 29.75 in 10.0 mi SW 5.8 mph - N/A   Clear
12:53 PM 46.9 °F - 32.0 °F 56% 29.74 in 10.0 mi SSW 6.9 mph - N/A   Clear
1:53 PM 50.0 °F - 32.0 °F 50% 29.74 in 10.0 mi SSW 4.6 mph - N/A   Clear
2:53 PM 51.1 °F - 28.0 °F 41% 29.74 in 10.0 mi WSW 4.6 mph - N/A   Clear
3:53 PM 50.0 °F - 28.0 °F 43% 29.77 in 10.0 mi West 5.8 mph - N/A   Mostly Cloudy
5:53 PM 46.0 °F 41.4 °F 26.1 °F 46% 29.81 in 10.0 mi WNW 9.2 mph - N/A   Partly Cloudy
6:53 PM 44.1 °F 40.1 °F 27.0 °F 51% 29.83 in 10.0 mi West 6.9 mph - N/A   Clear
7:53 PM 42.1 °F 39.2 °F 28.0 °F 58% 29.83 in 10.0 mi WSW 4.6 mph - N/A   Clear
8:53 PM 37.9 °F 33.5 °F 27.0 °F 65% 29.85 in 10.0 mi SW 5.8 mph - N/A   Clear
9:53 PM 35.1 °F 30.1 °F 27.0 °F 72% 29.86 in 10.0 mi SW 5.8 mph - N/A   Clear
10:53 PM 33.1 °F 26.9 °F 26.1 °F 75% 29.86 in 10.0 mi SSW 6.9 mph - N/A   Clear
11:53 PM 34.0 °F 26.6 °F 26.1 °F 73% 29.86 in 10.0 mi SSW 9.2 mph - N/A   Clear